Time,TemperatureF,DewpointF,PressureIn,WindDirection,WindDirectionDegrees,WindSpeedMPH,WindSpeedGustMPH,Humidity,HourlyPrecipIn,Conditions,Clouds,dailyrainin,SoftwareType,DateUTC
2013-01-12 00:02:00,13.0,10.0,29.44,North,360,13.0,-999.0,89,-99.99,,,-99.99,,2013-01-12 06:02:00,
2013-01-12 00:12:00,13.0,10.0,29.44,North,360,13.0,-999.0,89,-99.99,,,-99.99,,2013-01-12 06:12:00,
2013-01-12 00:22:00,13.0,10.0,29.44,North,360,11.0,-999.0,89,-99.99,,,-99.99,,2013-01-12 06:22:00,
2013-01-12 00:32:00,13.0,10.0,29.46,North,360,11.0,-999.0,89,-99.99,,,-99.99,,2013-01-12 06:32:00,
2013-01-12 00:42:00,13.0,10.0,29.46,North,360,11.0,-999.0,89,-99.99,,,-99.99,,2013-01-12 06:42:00,
2013-01-12 00:52:00,13.0,10.0,29.47,North,360,12.0,-999.0,88,-99.99,,,-99.99,,2013-01-12 06:52:00,
2013-01-12 01:02:00,13.0,10.0,29.48,North,360,10.0,-999.0,88,-99.99,,,-99.99,,2013-01-12 07:02:00,
2013-01-12 01:12:00,12.0,9.0,29.49,North,360,14.0,-999.0,87,-99.99,,,-99.99,,2013-01-12 07:12:00,
2013-01-12 01:22:00,12.0,9.0,29.49,North,360,14.0,-999.0,87,-99.99,,,-99.99,,2013-01-12 07:22:00,
2013-01-12 01:32:00,12.0,9.0,29.50,NW,305,13.0,-999.0,87,-99.99,,,-99.99,,2013-01-12 07:32:00,
2013-01-12 01:42:00,12.0,9.0,29.50,NW,305,13.0,-999.0,87,-99.99,,,-99.99,,2013-01-12 07:42:00,
2013-01-12 01:52:00,12.0,9.0,29.52,WNW,295,11.0,-999.0,87,-99.99,,,-99.99,,2013-01-12 07:52:00,
2013-01-12 02:02:00,12.0,9.0,29.54,North,360,12.0,-999.0,87,-99.99,,,-99.99,,2013-01-12 08:02:00,
2013-01-12 02:12:00,12.0,9.0,29.54,North,360,12.0,-999.0,87,-99.99,,,-99.99,,2013-01-12 08:12:00,
2013-01-12 02:22:00,12.0,9.0,29.54,North,360,11.0,-999.0,87,-99.99,,,-99.99,,2013-01-12 08:22:00,
2013-01-12 02:32:00,11.0,8.0,29.56,North,360,14.0,-999.0,87,-99.99,,,-99.99,,2013-01-12 08:32:00,
2013-01-12 02:42:00,11.0,8.0,29.56,North,360,14.0,-999.0,87,-99.99,,,-99.99,,2013-01-12 08:42:00,
2013-01-12 02:52:00,11.0,8.0,29.58,North,360,10.0,-999.0,86,-99.99,,,-99.99,,2013-01-12 08:52:00,
2013-01-12 03:02:00,11.0,8.0,29.58,North,360,13.0,-999.0,86,-99.99,,,-99.99,,2013-01-12 09:02:00,
2013-01-12 03:12:00,11.0,8.0,29.58,North,360,13.0,-999.0,86,-99.99,,,-99.99,,2013-01-12 09:12:00,
2013-01-12 03:22:00,10.0,7.0,29.59,North,360,12.0,-999.0,87,-99.99,,,-99.99,,2013-01-12 09:22:00,
2013-01-12 03:32:00,10.0,7.0,29.60,North,360,10.0,-999.0,88,-99.99,,,-99.99,,2013-01-12 09:32:00,
2013-01-12 03:42:00,10.0,7.0,29.60,North,360,10.0,-999.0,88,-99.99,,,-99.99,,2013-01-12 09:42:00,
2013-01-12 03:52:00,10.0,7.0,29.62,North,360,12.0,-999.0,87,-99.99,,,-99.99,,2013-01-12 09:52:00,
2013-01-12 04:02:00,10.0,7.0,29.64,North,360,9.0,-999.0,87,-99.99,,,-99.99,,2013-01-12 10:02:00,
2013-01-12 04:12:00,10.0,7.0,29.64,North,360,9.0,-999.0,87,-99.99,,,-99.99,,2013-01-12 10:12:00,
2013-01-12 04:22:00,10.0,7.0,29.65,North,360,13.0,-999.0,86,-99.99,,,-99.99,,2013-01-12 10:22:00,
2013-01-12 04:32:00,10.0,7.0,29.66,North,360,8.0,-999.0,86,-99.99,,,-99.99,,2013-01-12 10:32:00,
2013-01-12 04:42:00,10.0,7.0,29.66,North,360,8.0,-999.0,86,-99.99,,,-99.99,,2013-01-12 10:42:00,
2013-01-12 04:52:00,9.0,5.0,29.66,North,360,11.0,-999.0,84,-99.99,,,-99.99,,2013-01-12 10:52:00,
2013-01-12 05:02:00,9.0,6.0,29.67,North,360,11.0,-999.0,86,-99.99,,,-99.99,,2013-01-12 11:02:00,
2013-01-12 05:12:00,8.0,4.0,29.69,WNW,285,10.0,-999.0,85,-99.99,,,-99.99,,2013-01-12 11:12:00,
2013-01-12 05:22:00,8.0,4.0,29.69,WNW,285,10.0,-999.0,85,-99.99,,,-99.99,,2013-01-12 11:22:00,
2013-01-12 05:32:00,8.0,4.0,29.70,North,360,9.0,-999.0,85,-99.99,,,-99.99,,2013-01-12 11:32:00,
2013-01-12 05:42:00,8.0,4.0,29.70,North,360,9.0,-999.0,85,-99.99,,,-99.99,,2013-01-12 11:42:00,
2013-01-12 05:52:00,8.0,4.0,29.71,North,360,11.0,-999.0,85,-99.99,,,-99.99,,2013-01-12 11:52:00,
2013-01-12 06:02:00,7.0,3.0,29.72,North,360,13.0,-999.0,83,-99.99,,,-99.99,,2013-01-12 12:02:00,
2013-01-12 06:12:00,7.0,3.0,29.72,North,360,13.0,-999.0,83,-99.99,,,-99.99,,2013-01-12 12:12:00,
2013-01-12 06:22:00,7.0,3.0,29.74,North,360,11.0,-999.0,83,-99.99,,,-99.99,,2013-01-12 12:22:00,
2013-01-12 06:32:00,7.0,3.0,29.75,North,360,11.0,-999.0,83,-99.99,,,-99.99,,2013-01-12 12:32:00,
2013-01-12 06:42:00,7.0,3.0,29.75,North,360,11.0,-999.0,83,-99.99,,,-99.99,,2013-01-12 12:42:00,
2013-01-12 06:52:00,6.0,1.0,29.77,North,360,15.0,-999.0,81,-99.99,,,-99.99,,2013-01-12 12:52:00,
2013-01-12 07:02:00,6.0,2.0,29.78,NW,304,12.0,-999.0,82,-99.99,,,-99.99,,2013-01-12 13:02:00,
2013-01-12 07:12:00,6.0,2.0,29.78,NW,304,12.0,-999.0,82,-99.99,,,-99.99,,2013-01-12 13:12:00,
2013-01-12 07:22:00,6.0,2.0,29.80,North,360,8.0,-999.0,82,-99.99,,,-99.99,,2013-01-12 13:22:00,
2013-01-12 07:33:00,6.0,2.0,29.80,North,360,8.0,-999.0,82,-99.99,,,-99.99,,2013-01-12 13:33:00,
2013-01-12 07:42:00,6.0,2.0,29.80,North,360,8.0,-999.0,82,-99.99,,,-99.99,,2013-01-12 13:42:00,
2013-01-12 07:52:00,5.0,1.0,29.81,North,360,7.0,-999.0,84,-99.99,,,-99.99,,2013-01-12 13:52:00,
2013-01-12 08:02:00,5.0,1.0,29.83,North,360,10.0,-999.0,82,-99.99,,,-99.99,,2013-01-12 14:02:00,
2013-01-12 08:12:00,5.0,1.0,29.83,North,360,10.0,-999.0,82,-99.99,,,-99.99,,2013-01-12 14:12:00,
2013-01-12 08:22:00,4.0,0.0,29.83,North,360,9.0,-999.0,82,-99.99,,,-99.99,,2013-01-12 14:22:00,
2013-01-12 08:33:00,4.0,0.0,29.85,North,360,7.0,-999.0,83,-99.99,,,-99.99,,2013-01-12 14:33:00,
2013-01-12 08:43:00,4.0,0.0,29.85,North,360,7.0,-999.0,83,-99.99,,,-99.99,,2013-01-12 14:43:00,
2013-01-12 08:53:00,4.0,0.0,29.86,North,360,7.0,-999.0,84,-99.99,,,-99.99,,2013-01-12 14:53:00,
2013-01-12 09:03:00,4.0,0.0,29.87,North,360,7.0,-999.0,84,-99.99,,,-99.99,,2013-01-12 15:03:00,
2013-01-12 09:12:00,4.0,0.0,29.88,North,360,8.0,-999.0,83,-99.99,,,-99.99,,2013-01-12 15:12:00,
2013-01-12 09:22:00,4.0,0.0,29.88,North,360,8.0,-999.0,83,-99.99,,,-99.99,,2013-01-12 15:22:00,
2013-01-12 09:33:00,4.0,0.0,29.88,North,360,8.0,-999.0,83,-99.99,,,-99.99,,2013-01-12 15:33:00,
2013-01-12 09:42:00,4.0,0.0,29.88,North,360,8.0,-999.0,83,-99.99,,,-99.99,,2013-01-12 15:42:00,
2013-01-12 09:53:00,4.0,0.0,29.91,North,360,8.0,-999.0,83,-99.99,,,-99.99,,2013-01-12 15:53:00,
2013-01-12 10:03:00,4.0,0.0,29.91,North,360,7.0,-999.0,82,-99.99,,,-99.99,,2013-01-12 16:03:00,
2013-01-12 10:12:00,4.0,0.0,29.91,North,360,7.0,-999.0,82,-99.99,,,-99.99,,2013-01-12 16:12:00,
2013-01-12 10:23:00,4.0,0.0,29.92,North,360,8.0,-999.0,82,-99.99,,,-99.99,,2013-01-12 16:23:00,
2013-01-12 10:33:00,3.0,-1.0,29.93,North,360,7.0,-999.0,82,-99.99,,,-99.99,,2013-01-12 16:33:00,
2013-01-12 10:42:00,3.0,-1.0,29.93,North,360,7.0,-999.0,82,-99.99,,,-99.99,,2013-01-12 16:42:00,
2013-01-12 10:53:00,3.0,-1.0,29.95,North,360,7.0,-999.0,81,-99.99,,,-99.99,,2013-01-12 16:53:00,
2013-01-12 11:02:00,4.0,-1.0,29.96,North,360,6.0,-999.0,81,-99.99,,,-99.99,,2013-01-12 17:02:00,
2013-01-12 11:12:00,4.0,-1.0,29.96,North,360,6.0,-999.0,81,-99.99,,,-99.99,,2013-01-12 17:12:00,
2013-01-12 11:22:00,4.0,-1.0,29.97,North,360,7.0,-999.0,80,-99.99,,,-99.99,,2013-01-12 17:22:00,
2013-01-12 11:33:00,4.0,-1.0,29.98,North,360,8.0,-999.0,79,-99.99,,,-99.99,,2013-01-12 17:33:00,
2013-01-12 11:42:00,4.0,-1.0,29.98,North,360,8.0,-999.0,79,-99.99,,,-99.99,,2013-01-12 17:42:00,
2013-01-12 11:53:00,4.0,-1.0,29.99,North,360,6.0,-999.0,81,-99.99,,,-99.99,,2013-01-12 17:53:00,
2013-01-12 12:03:00,4.0,-1.0,30.00,North,360,7.0,-999.0,78,-99.99,,,-99.99,,2013-01-12 18:03:00,
2013-01-12 12:12:00,4.0,-1.0,30.00,North,360,7.0,-999.0,78,-99.99,,,-99.99,,2013-01-12 18:12:00,
2013-01-12 12:22:00,4.0,-1.0,30.00,North,360,7.0,-999.0,79,-99.99,,,-99.99,,2013-01-12 18:22:00,
2013-01-12 12:33:00,3.0,-2.0,30.01,North,360,7.0,-999.0,78,-99.99,,,-99.99,,2013-01-12 18:33:00,
2013-01-12 12:42:00,3.0,-2.0,30.01,North,360,7.0,-999.0,78,-99.99,,,-99.99,,2013-01-12 18:42:00,
2013-01-12 12:53:00,3.0,-2.0,30.01,North,360,7.0,-999.0,78,-99.99,,,-99.99,,2013-01-12 18:53:00,
2013-01-12 13:03:00,3.0,-2.0,30.01,North,360,6.0,-999.0,80,-99.99,,,-99.99,,2013-01-12 19:03:00,
2013-01-12 13:12:00,3.0,-2.0,30.01,North,360,6.0,-999.0,80,-99.99,,,-99.99,,2013-01-12 19:12:00,
2013-01-12 13:23:00,4.0,-1.0,30.01,North,360,6.0,-999.0,78,-99.99,,,-99.99,,2013-01-12 19:23:00,
2013-01-12 13:33:00,4.0,-1.0,30.01,North,360,8.0,-999.0,78,-99.99,,,-99.99,,2013-01-12 19:33:00,
2013-01-12 13:43:00,4.0,-1.0,30.01,North,360,8.0,-999.0,78,-99.99,,,-99.99,,2013-01-12 19:43:00,
2013-01-12 13:52:00,4.0,-2.0,30.01,North,360,7.0,-999.0,76,-99.99,,,-99.99,,2013-01-12 19:52:00,
2013-01-12 14:03:00,4.0,-2.0,30.01,North,360,9.0,-999.0,76,-99.99,,,-99.99,,2013-01-12 20:03:00,
2013-01-12 14:12:00,4.0,-2.0,30.02,North,360,7.0,-999.0,75,-99.99,,,-99.99,,2013-01-12 20:12:00,
2013-01-12 14:22:00,4.0,-2.0,30.02,North,360,7.0,-999.0,75,-99.99,,,-99.99,,2013-01-12 20:22:00,
2013-01-12 14:33:00,4.0,-2.0,30.03,North,360,6.0,-999.0,77,-99.99,,,-99.99,,2013-01-12 20:33:00,
2013-01-12 14:42:00,4.0,-2.0,30.03,North,360,6.0,-999.0,77,-99.99,,,-99.99,,2013-01-12 20:42:00,
2013-01-12 14:53:00,4.0,-2.0,30.03,North,360,7.0,-999.0,77,-99.99,,,-99.99,,2013-01-12 20:53:00,
2013-01-12 15:03:00,4.0,-2.0,30.04,North,360,7.0,-999.0,76,-99.99,,,-99.99,,2013-01-12 21:03:00,
2013-01-12 15:12:00,4.0,-2.0,30.05,North,360,8.0,-999.0,76,-99.99,,,-99.99,,2013-01-12 21:12:00,
2013-01-12 15:22:00,4.0,-2.0,30.05,North,360,8.0,-999.0,76,-99.99,,,-99.99,,2013-01-12 21:22:00,
2013-01-12 15:33:00,4.0,-2.0,30.06,North,360,6.0,-999.0,76,-99.99,,,-99.99,,2013-01-12 21:33:00,
2013-01-12 15:43:00,4.0,-2.0,30.06,North,360,6.0,-999.0,76,-99.99,,,-99.99,,2013-01-12 21:43:00,
2013-01-12 15:52:00,4.0,-2.0,30.06,North,360,5.0,-999.0,77,-99.99,,,-99.99,,2013-01-12 21:52:00,
2013-01-12 16:03:00,3.0,-3.0,30.07,NW,311,7.0,-999.0,77,-99.99,,,-99.99,,2013-01-12 22:03:00,
2013-01-12 16:12:00,3.0,-3.0,30.07,NW,311,7.0,-999.0,77,-99.99,,,-99.99,,2013-01-12 22:12:00,
2013-01-12 16:22:00,3.0,-3.0,30.07,North,360,4.0,-999.0,77,-99.99,,,-99.99,,2013-01-12 22:22:00,
2013-01-12 16:33:00,3.0,-2.0,30.08,North,360,4.0,-999.0,78,-99.99,,,-99.99,,2013-01-12 22:33:00,
2013-01-12 16:43:00,3.0,-2.0,30.08,North,360,4.0,-999.0,78,-99.99,,,-99.99,,2013-01-12 22:43:00,
2013-01-12 16:52:00,3.0,-3.0,30.08,North,360,5.0,-999.0,76,-99.99,,,-99.99,,2013-01-12 22:52:00,
2013-01-12 17:03:00,3.0,-3.0,30.08,North,360,5.0,-999.0,76,-99.99,,,-99.99,,2013-01-12 23:03:00,
2013-01-12 17:12:00,2.0,-3.0,30.08,North,360,5.0,-999.0,78,-99.99,,,-99.99,,2013-01-12 23:12:00,
2013-01-12 17:22:00,2.0,-3.0,30.08,North,360,5.0,-999.0,78,-99.99,,,-99.99,,2013-01-12 23:22:00,
2013-01-12 17:33:00,2.0,-3.0,30.08,North,360,5.0,-999.0,78,-99.99,,,-99.99,,2013-01-12 23:33:00,
2013-01-12 17:43:00,2.0,-3.0,30.08,North,360,5.0,-999.0,78,-99.99,,,-99.99,,2013-01-12 23:43:00,
2013-01-12 17:53:00,2.0,-3.0,30.09,North,360,5.0,-999.0,79,-99.99,,,-99.99,,2013-01-12 23:53:00,
2013-01-12 18:03:00,2.0,-3.0,30.09,North,360,2.0,-999.0,80,-99.99,,,-99.99,,2013-01-13 00:03:00,
2013-01-12 18:12:00,2.0,-3.0,30.09,North,360,2.0,-999.0,80,-99.99,,,-99.99,,2013-01-13 00:12:00,
2013-01-12 18:22:00,2.0,-2.0,30.09,North,360,2.0,-999.0,82,-99.99,,,-99.99,,2013-01-13 00:22:00,
2013-01-12 18:33:00,2.0,-2.0,30.11,North,360,2.0,-999.0,82,-99.99,,,-99.99,,2013-01-13 00:33:00,
2013-01-12 18:42:00,2.0,-2.0,30.11,North,360,2.0,-999.0,82,-99.99,,,-99.99,,2013-01-13 00:42:00,
2013-01-12 18:52:00,2.0,-2.0,30.11,North,360,2.0,-999.0,81,-99.99,,,-99.99,,2013-01-13 00:52:00,
2013-01-12 19:02:00,2.0,-2.0,30.13,North,360,2.0,-999.0,81,-99.99,,,-99.99,,2013-01-13 01:02:00,
2013-01-12 19:12:00,2.0,-2.0,30.13,North,360,2.0,-999.0,81,-99.99,,,-99.99,,2013-01-13 01:12:00,
2013-01-12 19:22:00,2.0,-2.0,30.16,North,360,1.0,-999.0,81,-99.99,,,-99.99,,2013-01-13 01:22:00,
2013-01-12 19:33:00,2.0,-3.0,30.16,North,360,2.0,-999.0,80,-99.99,,,-99.99,,2013-01-13 01:33:00,
2013-01-12 19:43:00,2.0,-3.0,30.16,North,360,2.0,-999.0,80,-99.99,,,-99.99,,2013-01-13 01:43:00,
2013-01-12 19:52:00,2.0,-2.0,30.16,North,360,4.0,-999.0,81,-99.99,,,-99.99,,2013-01-13 01:52:00,
2013-01-12 20:02:00,2.0,-2.0,30.16,North,360,2.0,-999.0,81,-99.99,,,-99.99,,2013-01-13 02:02:00,
2013-01-12 20:12:00,2.0,-2.0,30.16,North,360,2.0,-999.0,81,-99.99,,,-99.99,,2013-01-13 02:12:00,
2013-01-12 20:22:00,2.0,-2.0,30.16,North,360,3.0,-999.0,81,-99.99,,,-99.99,,2013-01-13 02:22:00,
2013-01-12 20:32:00,2.0,-2.0,30.16,North,360,3.0,-999.0,82,-99.99,,,-99.99,,2013-01-13 02:32:00,
2013-01-12 20:42:00,2.0,-2.0,30.16,North,360,3.0,-999.0,82,-99.99,,,-99.99,,2013-01-13 02:42:00,
2013-01-12 20:52:00,2.0,-2.0,30.17,North,360,2.0,-999.0,82,-99.99,,,-99.99,,2013-01-13 02:52:00,
2013-01-12 21:02:00,2.0,-2.0,30.17,North,360,3.0,-999.0,82,-99.99,,,-99.99,,2013-01-13 03:02:00,
2013-01-12 21:12:00,2.0,-2.0,30.17,North,360,3.0,-999.0,82,-99.99,,,-99.99,,2013-01-13 03:12:00,
2013-01-12 21:22:00,2.0,-2.0,30.18,North,360,2.0,-999.0,82,-99.99,,,-99.99,,2013-01-13 03:22:00,
2013-01-12 21:33:00,1.0,-3.0,30.18,North,360,3.0,-999.0,82,-99.99,,,-99.99,,2013-01-13 03:33:00,
2013-01-12 21:42:00,1.0,-3.0,30.18,North,360,3.0,-999.0,82,-99.99,,,-99.99,,2013-01-13 03:42:00,
2013-01-12 21:52:00,1.0,-3.0,30.18,North,360,3.0,-999.0,82,-99.99,,,-99.99,,2013-01-13 03:52:00,
2013-01-12 22:02:00,1.0,-3.0,30.19,North,360,5.0,-999.0,81,-99.99,,,-99.99,,2013-01-13 04:02:00,
2013-01-12 22:12:00,1.0,-3.0,30.19,North,360,5.0,-999.0,81,-99.99,,,-99.99,,2013-01-13 04:12:00,
2013-01-12 22:22:00,1.0,-3.0,30.19,North,360,5.0,-999.0,82,-99.99,,,-99.99,,2013-01-13 04:22:00,
2013-01-12 22:32:00,1.0,-3.0,30.18,North,360,4.0,-999.0,82,-99.99,,,-99.99,,2013-01-13 04:32:00,
2013-01-12 22:42:00,1.0,-3.0,30.18,North,360,4.0,-999.0,82,-99.99,,,-99.99,,2013-01-13 04:42:00,
2013-01-12 22:53:00,1.0,-3.0,30.19,North,360,3.0,-999.0,82,-99.99,,,-99.99,,2013-01-13 04:53:00,
2013-01-12 23:03:00,1.0,-3.0,30.19,North,360,5.0,-999.0,81,-99.99,,,-99.99,,2013-01-13 05:03:00,
2013-01-12 23:12:00,1.0,-3.0,30.19,North,360,5.0,-999.0,81,-99.99,,,-99.99,,2013-01-13 05:12:00,
2013-01-12 23:22:00,0.0,-4.0,30.19,North,360,5.0,-999.0,81,-99.99,,,-99.99,,2013-01-13 05:22:00,
2013-01-12 23:32:00,0.0,-4.0,30.18,North,360,4.0,-999.0,81,-99.99,,,-99.99,,2013-01-13 05:32:00,
2013-01-12 23:42:00,0.0,-4.0,30.18,North,360,4.0,-999.0,81,-99.99,,,-99.99,,2013-01-13 05:42:00,
2013-01-12 23:53:00,0.0,-4.0,30.19,North,360,3.0,-999.0,82,-99.99,,,-99.99,,2013-01-13 05:53:00,